Regional Weather Roundup
Issued by NWS

Home | Current Version | Previous Version | Text Only | Print | Product List | Glossary On
Versions: 1 2 3 4 5 6 7 8 9 10 11 12 13 14 15 16 17 18 19 20 21 22 23 24 25 26 27 28 29 30 31 32 33 34 35 36 37 38 39 40 41 42 43 44 45 46 47 48 49 50
000
ASUS45 KSLC 291010
RWRUT

UTAH REGIONAL WEATHER ROUNDUP
NATIONAL WEATHER SERVICE SALT LAKE CITY UT
400 AM MDT SAT APR 29 2017

UTZ001>011-023>025-291100-

NORTHERN UTAH

CITY           SKY/WX    TMP DP  RH WIND       PRES   REMARKS
BRIGHAM CITY   MOCLDY    40  23  50 SE8G28    30.12R WCI  35
HILL AFB       PTCLDY    38  21  51 E6        30.08R WCI  33
LOGAN          CLEAR     36  29  75 NE5       30.13R WCI  32
OGDEN          MOCLDY    39  23  52 NE24      30.07S WCI  28
SALT LAKE CITY MOCLDY    42  24  49 NE10      30.07R
TOOELE VALLEY  PTCLDY    34  30  86 CALM      30.08R
WENDOVER       CLEAR     43  24  47 NW20      30.11S
HEBER CITY     PTCLDY    32  21  64 SE5       30.03R WCI  27
WEST JORDAN    MOCLDY    38  35  90 NW7       30.08S WCI  32

$$

UTZ011>015-024>027-291100-

CENTRAL/NORTHEAST UTAH

CITY           SKY/WX    TMP DP  RH WIND       PRES   REMARKS
PROVO AIRPORT  CLEAR     33  30  88 NE5       30.04S WCI  29
MOAB/CANYONLAN PTCLDY    39  28  64 NW12      29.87S WCI  32
DELTA          PTCLDY    34  32  93 NE7       30.04R WCI  28
PRICE          CLEAR     30  22  72 NW7       29.95R WCI  23
RICHFIELD      CLOUDY    37  34  87 N6        30.04R WCI  33
ROOSEVELT      PTCLDY    32  28  86 SW7       30.01R WCI  26
VERNAL         CLOUDY    35  20  54 NE25G37   30.01R WCI  23

$$

UTZ013>016-019>022-027-291100-

SOUTHERN UTAH

CITY           SKY/WX    TMP DP  RH WIND       PRES   REMARKS
BRYCE CANYON   FLURRIES  29  23  78 W17       29.96S WCI  17
CEDAR CITY     CLOUDY    38  24  57 N6        30.02S WCI  33
MILFORD        CLOUDY    41  28  60 N23G31    30.02S
ST GEORGE      MOSUNNY   48  25  40 S9        29.97F
HANKSVILLE     CLOUDY    43  28  56 CALM      29.94S
KANAB          PTCLDY    32  23  69 S5        30.00S WCI  27
BLANDING       MOCLDY    37  25  61 NW15G22   29.90F WCI  28

$$

REGIONAL REPORTS     COLORADO/ARIZONA

CITY           SKY/WX    TMP DP  RH WIND       PRES   REMARKS
CRAIG, CO      CLOUDY    33  21  61 E7        29.96R WCI  27
GRAND JUNCTION CLOUDY    41  33  73 S7        29.87R
RIFLE, CO      CLOUDY    36  29  75 CALM      29.89R
MONTROSE, CO   LGT SNOW  32  32 100 CALM      29.88S VSB 3/4
CORTEZ, CO     PTCLDY    27  26  96 SE5       29.84S WCI  22
COLORADO CITY    N/A     32  23  69 CALM      30.00S
PAGE, AZ       CLOUDY    47  23  38 W7        29.91R
GRAND CANYON   CLEAR     30  16  56 NW3       29.94R
KINGMAN, AZ    CLEAR     46  32  58 N12       29.97R
FLAGSTAFF, AZ  PTCLDY    25  11  55 CALM      29.91R

$$

REGIONAL REPORTS    NEVADA/IDAHO/WYOMING

CITY           SKY/WX    TMP DP  RH WIND       PRES   REMARKS
LAS VEGAS, NV  CLEAR     58  17  20 NW14G24   30.00S
ELY, NY        MOCLDY    28  19  69 N10       30.12S WCI  19
ELKO, NV       CLEAR     28  23  81 CALM      30.18S
POCATELLO, ID  CLEAR     33  27  78 NE6       30.14R WCI  28
BURLEY, ID     CLEAR     37  27  67 W9        30.14S WCI  30
FORT BRIDGER,  CLOUDY    27  25  93 NE8       30.14R WCI  18
EVANSTON, WY   CLOUDY    26  21  81 NE12      30.10R WCI  16
ROCK SPRINGS,  CLOUDY    27  20  75 NE15      30.10R WCI  15

$$



USA.gov is the U.S. government's official web portal to all federal, state and local government web resources and services.